BAW807K EKBI-EGLL

Flight info

Callsign BAW807K
Flight time 1h 16m
Altitude 38000
Route MIKRO5A MIKRO DCT IPSUB P174 KUSHA DCT ABNED L980 LOGAN LOGAN2H
Aircraft A319/M-SDE2E3FGHIJ1RWXY/S

Departure

Time 2025-10-10 11:49
Airport Billund Airport (EKBI)

Arrival

Time 2025-10-10 13:06
Airport London Heathrow Airport (EGLL)
Time Latitude Longitude Altitude Speed Heading
2025-10-10 11:14 55.74525 9.14486 216 ft 0 kts 357°
2025-10-10 11:38 55.74505 9.14487 217 ft 3 kts 358°
2025-10-10 11:38 55.74485 9.14488 219 ft 3 kts
2025-10-10 11:39 55.74446 9.14476 219 ft 3 kts 41°
2025-10-10 11:39 55.74439 9.14459 217 ft 0 kts 87°
2025-10-10 11:42 55.74446 9.14705 216 ft 15 kts 88°
2025-10-10 11:42 55.74452 9.14906 216 ft 13 kts 94°
2025-10-10 11:42 55.74259 9.14994 216 ft 18 kts 178°
2025-10-10 11:43 55.74203 9.15272 216 ft 18 kts 87°
2025-10-10 11:43 55.74220 9.15808 216 ft 23 kts 86°
2025-10-10 11:44 55.74227 9.16036 216 ft 19 kts 88°
2025-10-10 11:44 55.74251 9.16754 216 ft 19 kts 87°
2025-10-10 11:45 55.74268 9.17313 216 ft 19 kts 85°
2025-10-10 11:46 55.74270 9.17369 216 ft 20 kts 88°
2025-10-10 11:46 55.74278 9.17639 216 ft 24 kts 86°
2025-10-10 11:46 55.74215 9.18146 219 ft 21 kts 173°
2025-10-10 11:47 55.74123 9.18116 220 ft 0 kts 270°
2025-10-10 11:47 55.74107 9.17519 222 ft 78 kts 266°
2025-10-10 11:48 55.74066 9.16193 217 ft 136 kts 267°
2025-10-10 11:48 55.74817 9.11175 1881 ft 158 kts 309°
2025-10-10 11:49 55.77149 9.05304 3314 ft 225 kts 304°
2025-10-10 11:50 55.78918 9.00633 5252 ft 234 kts 302°
2025-10-10 11:50 55.79345 8.97810 6114 ft 248 kts 271°
2025-10-10 11:50 55.77469 8.92305 7896 ft 279 kts 232°
2025-10-10 11:51 55.74614 8.87429 9589 ft 289 kts 231°
2025-10-10 11:51 55.71787 8.82059 10728 ft 315 kts 236°
2025-10-10 11:52 55.68826 8.75758 11609 ft 342 kts 237°
2025-10-10 11:52 55.65795 8.69125 13029 ft 350 kts 238°
2025-10-10 11:53 55.61144 8.58945 15023 ft 360 kts 238°
2025-10-10 11:54 55.57949 8.52007 16223 ft 367 kts 238°
2025-10-10 11:54 55.56327 8.48487 16835 ft 371 kts 238°
2025-10-10 11:54 55.53035 8.41367 17344 ft 375 kts 238°
2025-10-10 11:55 55.49711 8.34218 17953 ft 379 kts 237°
2025-10-10 11:55 55.46327 8.26976 19093 ft 386 kts 237°
2025-10-10 11:56 55.42729 8.19821 20155 ft 399 kts 227°
2025-10-10 11:56 55.37876 8.14788 21222 ft 420 kts 204°
2025-10-10 11:57 55.29347 8.10350 22800 ft 430 kts 201°
2025-10-10 11:57 55.26467 8.08864 23291 ft 433 kts 201°
2025-10-10 11:58 55.20656 8.05866 24163 ft 439 kts 201°
2025-10-10 11:58 55.14759 8.02825 24962 ft 444 kts 201°
2025-10-10 12:00 54.90269 7.92044 27892 ft 466 kts 195°
2025-10-10 12:02 54.65734 7.78518 30529 ft 461 kts 227°
2025-10-10 12:04 54.50123 7.50572 32574 ft 463 kts 231°
2025-10-10 12:06 54.30255 7.15212 35834 ft 453 kts 231°
2025-10-10 12:08 54.12876 6.84706 38249 ft 444 kts 229°
2025-10-10 12:10 53.95672 6.54897 38472 ft 440 kts 229°
2025-10-10 12:12 53.79195 6.26678 38450 ft 439 kts 229°
2025-10-10 12:14 53.61954 5.97525 38485 ft 438 kts 228°
2025-10-10 12:16 53.44678 5.68641 38487 ft 438 kts 228°
2025-10-10 12:18 53.27416 5.40175 38513 ft 435 kts 228°
2025-10-10 12:20 53.10115 5.11930 38501 ft 435 kts 228°
2025-10-10 12:22 52.92742 4.83927 38514 ft 434 kts 227°
2025-10-10 12:24 52.75344 4.56243 38494 ft 435 kts 227°
2025-10-10 12:26 52.57835 4.28656 38504 ft 436 kts 227°
2025-10-10 12:28 52.42417 4.04665 38510 ft 437 kts 226°
2025-10-10 12:30 52.22488 3.73969 38529 ft 437 kts 226°
2025-10-10 12:32 52.06920 3.50277 38527 ft 438 kts 226°
2025-10-10 12:34 51.87225 3.19674 38536 ft 420 kts 239°
2025-10-10 12:36 51.83098 2.89117 38554 ft 398 kts 266°
2025-10-10 12:38 51.80362 2.49105 37926 ft 398 kts 265°
2025-10-10 12:40 51.78195 2.18469 36142 ft 383 kts 266°
2025-10-10 12:42 51.75938 1.80083 31792 ft 380 kts 266°
2025-10-10 12:44 51.74113 1.51057 28041 ft 363 kts 266°
2025-10-10 12:46 51.72309 1.23436 24262 ft 346 kts 265°
2025-10-10 12:46 51.71797 1.15774 23024 ft 341 kts 266°
2025-10-10 12:47 51.71291 1.08271 21841 ft 337 kts 266°
2025-10-10 12:47 51.70774 1.00809 20690 ft 333 kts 266°
2025-10-10 12:48 51.70518 0.97104 20140 ft 331 kts 266°
2025-10-10 12:48 51.70020 0.89770 19078 ft 328 kts 266°
2025-10-10 12:49 51.69269 0.78924 17391 ft 321 kts 265°
2025-10-10 12:49 51.68761 0.71833 16330 ft 316 kts 265°
2025-10-10 12:50 51.68265 0.64848 15314 ft 311 kts 265°
2025-10-10 12:50 51.67768 0.57971 14338 ft 307 kts 265°
2025-10-10 12:51 51.67273 0.51193 13274 ft 302 kts 265°
2025-10-10 12:51 51.67027 0.47843 12753 ft 300 kts 265°
2025-10-10 12:52 51.66540 0.41216 11775 ft 296 kts 265°
2025-10-10 12:52 51.66069 0.34804 11276 ft 275 kts 265°
2025-10-10 12:53 51.65513 0.27232 10663 ft 257 kts 266°
2025-10-10 12:53 51.65123 0.21544 9928 ft 254 kts 266°
2025-10-10 12:54 51.64747 0.15969 9192 ft 251 kts 266°
2025-10-10 12:54 51.64421 0.10417 8454 ft 246 kts 274°
2025-10-10 12:55 51.64868 0.05001 7751 ft 243 kts 281°
2025-10-10 12:55 51.65412 -0.00301 7082 ft 238 kts 281°
2025-10-10 12:56 51.65678 -0.02898 6832 ft 232 kts 281°
2025-10-10 12:56 51.66176 -0.07895 6320 ft 220 kts 281°
2025-10-10 12:57 51.65555 -0.14839 5818 ft 218 kts 242°
2025-10-10 12:57 51.63989 -0.18993 5596 ft 217 kts 234°
2025-10-10 12:58 51.61349 -0.20687 5488 ft 205 kts 183°
2025-10-10 12:58 51.58580 -0.20673 5324 ft 200 kts 173°
2025-10-10 12:59 51.56036 -0.18747 5163 ft 201 kts 151°
2025-10-10 12:59 51.53602 -0.16612 4733 ft 198 kts 151°
2025-10-10 13:00 51.52373 -0.15621 4497 ft 198 kts 160°
2025-10-10 13:00 51.49623 -0.15403 3915 ft 199 kts 180°
2025-10-10 13:01 51.47714 -0.19668 3031 ft 185 kts 288°
2025-10-10 13:01 51.47810 -0.23791 2519 ft 185 kts 272°
2025-10-10 13:02 51.47799 -0.27188 2104 ft 183 kts 272°
2025-10-10 13:02 51.47792 -0.31191 1609 ft 175 kts 272°
2025-10-10 13:03 51.47784 -0.34921 1167 ft 162 kts 272°
2025-10-10 13:03 51.47780 -0.36598 965 ft 145 kts 272°
2025-10-10 13:04 51.47769 -0.42580 219 ft 131 kts 271°
2025-10-10 13:05 51.47750 -0.45779 86 ft 27 kts 249°
2025-10-10 13:05 51.47594 -0.46196 86 ft 20 kts 271°
2025-10-10 13:06 51.47592 -0.46653 86 ft 26 kts 269°
2025-10-10 13:06 51.47509 -0.46919 90 ft 16 kts 166°
2025-10-10 13:07 51.47237 -0.46866 86 ft 15 kts 180°
2025-10-10 13:07 51.47180 -0.46864 86 ft 0 kts 181°
2025-10-10 13:08 51.47089 -0.46865 86 ft 12 kts 180°
2025-10-10 13:09 51.46770 -0.46864 86 ft 11 kts 168°
2025-10-10 13:09 51.46748 -0.46636 86 ft 14 kts 88°
2025-10-10 13:10 51.46785 -0.45983 86 ft 8 kts 349°
2025-10-10 13:11 51.46878 -0.45990 88 ft 6 kts 54°
2025-10-10 13:11 51.46896 -0.45945 86 ft 3 kts 55°
2025-10-10 13:12 51.46899 -0.45938 86 ft 0 kts 55°